Weather History for KNYC - August, 2014

Change the Weather History Date:

Wednesday, August 20, 2014

  Actual Average Record
Temperature  
Mean Temperature 77 °F 75 °F  
Max Temperature 84 °F 82 °F 97 °F (1955)
Min Temperature 70 °F 68 °F 55 °F (1949)
Degree Days  
Heating Degree Days 0 0  
Month to date heating degree days 0 0  
Since 1 June heating degree days 0 19  
Since 1 July heating degree days 0 0  
Cooling Degree Days 12 10  
Month to date cooling degree days 190 216  
Year to date cooling degree days 827 852  
Since 1 June cooling degree days 773 783  
Growing Degree Days 26 (Base 50)    
Moisture  
Dew Point 60 °F    
Average Humidity 60    
Maximum Humidity 79    
Minimum Humidity 40    
Precipitation  
Precipitation 0.00 in 0.14 in 3.63 in (1904)
Month to date precipitation 1.21 2.99  
Year to date precipitation 35.22 31.79  
Snow  
Snow 0.00 in 0.00 in 0.00 in (2002)
Month to date snowfall 0.0 0.0  
Since 1 July snowfall 0.0 0.0  
Snow Depth 0.00 in    
Sea Level Pressure  
Sea Level Pressure 29.99 in    
Wind  
Wind Speed 2 mph (SSE)    
Max Wind Speed 10 mph    
Max Gust Speed 14 mph    
Visibility 10 miles    
Events      
T = Trace of Precipitation, MM = Missing Value Source: NWS Daily Summary

Daily Weather History Graph

Daily Weather History Graph

Search for Another Location

Airport or City:

Trip Planner

Search our weather history database for the weather conditions in past years. The results will help you decide how hot, cold, wet, or windy it might be!

Date:

Astronomy

Aug. 20, 2014 Rise Set
Actual Time 6:10 AM EDT 7:46 PM EDT
Civil Twilight 5:41 AM EDT 8:15 PM EDT
Nautical Twilight 5:06 AM EDT 8:50 PM EDT
Astronomical Twilight 4:29 AM EDT 9:27 PM EDT
Moon 1:48 AM EDT (8/20) 4:30 PM EDT (8/20)
Length of Visible Light 14h 33m
Length of Day
13h 35m
Waning Crescent, 21% of the Moon is Illuminated
Aug 20
Waning Crescent
Aug 25
New
Sep 2
First Quarter
Sep 8
Full
Sep 15
Last Quarter

Hourly Weather History & Observations

Time (EDT) Temp. Heat Index Dew Point Humidity Pressure Visibility Wind Dir Wind Speed Gust Speed Precip Events Conditions
12:51 AM 71.1 °F - 63.0 °F 75% 29.94 in 10.0 mi Calm Calm - N/A   Clear
1:51 AM 70.0 °F - 62.1 °F 76% 29.94 in 10.0 mi SSE 4.6 mph - N/A   Clear
2:51 AM 70.0 °F - 63.0 °F 78% 29.95 in 10.0 mi Calm Calm - N/A   Partly Cloudy
3:51 AM 71.1 °F - 63.0 °F 75% 29.94 in 10.0 mi Calm Calm - N/A   Overcast
4:51 AM 70.0 °F - 62.1 °F 76% 29.95 in 10.0 mi Calm Calm - N/A   Mostly Cloudy
5:51 AM 71.1 °F - 63.0 °F 75% 29.96 in 10.0 mi Calm Calm - N/A   Overcast
6:51 AM 72.0 °F - 64.0 °F 76% 29.97 in 10.0 mi Calm Calm - N/A   Overcast
7:51 AM 73.0 °F - 64.0 °F 73% 29.99 in 10.0 mi Calm Calm - N/A   Overcast
8:51 AM 73.9 °F - 64.0 °F 71% 29.99 in 9.0 mi Calm Calm - N/A   Mostly Cloudy
9:51 AM 75.9 °F - 57.0 °F 52% 30.00 in 10.0 mi Variable 3.5 mph - N/A   Partly Cloudy
10:51 AM 78.1 °F - 59.0 °F 52% 30.01 in 10.0 mi Calm Calm - N/A   Partly Cloudy
11:51 AM 81.0 °F 81.6 °F 60.1 °F 49% 30.01 in 10.0 mi Variable 3.5 mph - N/A   Partly Cloudy
12:51 PM 82.9 °F 83.2 °F 60.1 °F 46% 29.99 in 10.0 mi Calm Calm - N/A   Scattered Clouds
1:51 PM 82.0 °F 82.0 °F 57.9 °F 44% 29.98 in 10.0 mi Variable 5.8 mph - N/A   Clear
2:51 PM 82.9 °F 82.6 °F 57.9 °F 42% 29.97 in 10.0 mi North - - N/A   Clear
3:51 PM 82.0 °F 81.4 °F 55.0 °F 39% 29.98 in 10.0 mi North - - N/A   Clear
4:51 PM 81.0 °F 81.0 °F 57.0 °F 44% 29.99 in 10.0 mi Variable 3.5 mph - N/A   Clear
5:51 PM 78.1 °F - 55.0 °F 45% 30.00 in 10.0 mi Variable 6.9 mph - N/A   Clear
6:51 PM 75.9 °F - 53.1 °F 45% 30.00 in 10.0 mi South 5.8 mph - N/A   Clear
7:51 PM 73.9 °F - 55.9 °F 53% 30.01 in 10.0 mi Variable 3.5 mph - N/A   Clear
8:51 PM 73.0 °F - 57.9 °F 59% 30.02 in 10.0 mi North - - N/A   Clear
9:51 PM 73.0 °F - 57.9 °F 59% 30.01 in 10.0 mi Variable 3.5 mph - N/A   Clear
10:51 PM 73.4 °F - 59.0 °F 61% 30.04 in 10.0 mi Variable 3.5 mph - N/A   Clear
11:51 PM 73.0 °F - 57.9 °F 59% 30.03 in 10.0 mi Calm Calm - N/A   Clear